STARLINK-34418

Last updated on Thu Jul 03 2025 00:02:07 GMT+0000 (Coordinated Universal Time)

1 64461U 25130Z 25183.58335648 -.00096396 00000+0 -66046-3 0 9992 2 64461 53.1569 179.7164 0000757 80.3265 67.3107 15.74223316 3506
UTC large
Height (km)
Speed (km/s)
/
Latitude / Longitude
Inclination (degrees)
Orbital Period (minutes)
Azimuth
Elevation
Range (km)
Doppler Factor

Next 0 passes for location: London (51.5072 / 0.1276)

Sorry there are no passes over London.